LEMH Airport Information

Runway Information
Runway 01L Length 7710 ft width 148 ft
Elevation 277 ft Threshold 0 ft Heading 9
Runway 19R Length 7710 ft Width 148 ft
Elevation 298 ft Threshold 0 ft Heading 189
Runway 01R Length 6890 ft width 148 ft
Elevation 272 ft Threshold 0 ft Heading 9
Runway 19L Length 6890 ft Width 148 ft
Elevation 298 ft Threshold 0 ft Heading 189
Airport Frequencies
Type APP Name APP Frequency 119.65 MHZ
Type ATIS Name ATIS Frequency 112.6 MHZ
Type GND Name GND Frequency 121.75 MHZ
Type TWR Name TWR Frequency 118.2 MHZ
Airport Navaids
Type VOR-DME Name Menorca Frequency 112600 KHZ
Type NDB Name Menorca Frequency 344 KHZ
Airport Weather Information & NOTAM
ADDS - METARS form results

(0327 UTC 19 August 2018)
 
METAR text: LEMH 190300Z AUTO 32003KT 280V340 CAVOK 21/19 Q1018
Conditions at: LEMH (MAHON/MENORCA IS, ES) observed 0300 UTC 19 August 2018
Temperature: 21.0°C (70°F)
Dewpoint: 19.0°C (66°F) [RH = 88%]
Pressure (altimeter): 30.06 inches Hg (1018.0 mb)
Winds: from the NW (320 degrees) at 3 MPH (3 knots; 1.6 m/s)
Visibility: 6 or more miles (10+ km)
Ceiling: ceiling and visibility are OK
Clouds: unknown
Weather: no significant weather observed at this time

METAR text: LEMH 190230Z AUTO 32003KT CAVOK 21/18 Q1018
Conditions at: LEMH (MAHON/MENORCA IS, ES) observed 0230 UTC 19 August 2018
Temperature: 21.0°C (70°F)
Dewpoint: 18.0°C (64°F) [RH = 83%]
Pressure (altimeter): 30.06 inches Hg (1018.0 mb)
Winds: from the NW (320 degrees) at 3 MPH (3 knots; 1.6 m/s)
Visibility: 6 or more miles (10+ km)
Ceiling: ceiling and visibility are OK
Clouds: unknown
Weather: no significant weather observed at this time